This demonstration page uses our WeatherBlox Daily Observations layout. Learn more.

Left ArrowRight Arrow

39.51506, -84.39828

Hourly Observations for May 22, 2022

Temp ( °F °C ) Dew Point ( °F °C ) Humidity (%) Winds ( mph kmh ) Pressure ( in mb ) Visibility ( mi km ) Precip ( " mm )
12:15 am 00:15 Cloudy 66 19 N/A N/A Calm 30.06 1018 7 11 0.00 0.00
12:35 am 00:35 Cloudy with Haze 66 19 N/A N/A WNW 5 7 30.05 1018 5 8 0.00 0.00
12:55 am 00:55 Partly Cloudy with Nearby Thunderstorms 66 19 N/A N/A SE 5 7 30.04 1017 5 8 0.00 0.00
1:15 am 01:15 Hazy 66 19 N/A N/A S 3 6 30.05 1018 7 11 0.00 0.00
1:35 am 01:35 Clear 66 19 N/A N/A SE 5 7 30.05 1018 10 16 0.00 0.00
1:55 am 01:55 Hazy 66 19 N/A N/A SSE 5 7 30.03 1017 5 8 0.00 0.00
2:15 am 02:15 Hazy 66 19 N/A N/A SE 5 7 30.00 1016 7 11 0.00 0.00
2:35 am 02:35 Clear 66 19 N/A N/A S 9 15 30.02 1016 10 16 0.00 0.00
2:55 am 02:55 Clear 64 18 N/A N/A SSW 3 6 30.02 1017 7 11 0.00 0.00
3:15 am 03:15 Hazy 64 18 N/A N/A Calm 30.02 1017 5 8 0.00 0.00
3:35 am 03:35 Hazy 64 18 N/A N/A Calm 30.01 1016 5 8 0.00 0.00
3:55 am 03:55 Hazy 64 18 N/A N/A Calm 30.02 1017 5 8 0.00 0.00
4:15 am 04:15 Hazy 64 18 N/A N/A Calm 30.02 1017 5 8 0.00 0.00
4:35 am 04:35 Hazy 64 18 N/A N/A Calm 30.02 1017 5 8 0.00 0.00
4:55 am 04:55 Hazy 64 18 N/A N/A WSW 3 6 30.03 1017 4 6 0.00 0.00
5:15 am 05:15 Hazy 64 18 N/A N/A WSW 6 9 30.04 1017 5 8 0.00 0.00
5:35 am 05:35 Hazy 64 18 N/A N/A W 8 13 30.05 1018 5 8 0.00 0.00
5:55 am 05:55 Hazy 66 19 N/A N/A WSW 6 9 30.05 1018 5 8 0.00 0.00
6:15 am 06:15 Hazy 64 18 N/A N/A WSW 3 6 30.05 1018 7 11 0.00 0.00
6:35 am 06:35 Mostly Cloudy with Haze 64 18 N/A N/A S 3 6 30.06 1018 5 8 0.00 0.00
6:55 am 06:55 Cloudy with Haze 66 19 N/A N/A WSW 5 7 30.06 1018 7 11 0.00 0.00
7:15 am 07:15 Cloudy 66 19 N/A N/A WSW 7 11 30.07 1018 7 11 0.00 0.00
7:35 am 07:35 Mostly Cloudy 66 19.1 66 19 99 99 WSW 6 9 30.09 1019 10 16 0.00 0.00
7:55 am 07:55 Partly Cloudy 67 19.2 66 19 99 99 W 7 11 30.09 1019 10 16 0.00 0.00
8:15 am 08:15 Mostly Cloudy 67 19.2 66 18.9 98 98 NW 7 11 30.09 1019 10 16 0.00 0.00
8:35 am 08:35 Cloudy 67 19.2 66 18.7 97 97 WNW 7 11 30.11 1020 10 16 0.00 0.00
8:55 am 08:55 Cloudy 65 18.5 64 17.7 95 95 WNW 8 13 30.13 1020 10 16 0.00 0.00
9:15 am 09:15 Cloudy with Mist and Fog 62 16.7 61 16.1 96 96 NW 12 19 30.15 1021 7 11 0.00 0.00
9:35 am 09:35 Cloudy 61 16.2 59 15.1 93 93 NNW 13 20 30.16 1021 10 16 0.00 0.00
9:55 am 09:55 Cloudy 62 16.5 59 15 91 91 NW 9 15 30.16 1021 10 16 0.00 0.00
10:15 am 10:15 Cloudy 62 16.4 58 14.3 87 87 NNW 12 19 30.16 1021 10 16 0.00 0.00
10:35 am 10:35 Cloudy 61 16 56 13.6 86 86 NNW 10 17 30.17 1022 10 16 0.00 0.00
10:55 am 10:55 Cloudy 62 16.8 56 13.4 81 81 NW 9 15 30.18 1022 10 16 0.00 0.00
11:15 am 11:15 Cloudy 63 17.1 55 12.7 75 75 NNW 8 13 30.19 1022 10 16 0.00 0.00
11:35 am 11:35 Cloudy 64 17.6 56 13.3 76 76 NNW 7 11 30.19 1022 10 16 0.00 0.00
11:55 am 11:55 Cloudy 63 17.3 54 12.1 72 72 NNW 12 19 30.20 1023 10 16 0.00 0.00
12:15 pm 12:15 Cloudy 63 17.3 54 12 71 71 WNW 12 19 30.21 1023 10 16 0.00 0.00
12:35 pm 12:35 Cloudy 63 17.3 52 11.2 68 68 N 13 20 30.22 1023 10 16 0.00 0.00
12:55 pm 12:55 Cloudy 64 17.5 53 11.7 69 69 NNW 10 17 30.22 1023 10 16 0.00 0.00
1:15 pm 13:15 Cloudy 65 18.4 54 12.3 68 68 NNW 7 11 30.22 1023 10 16 0.00 0.00
1:35 pm 13:35 Cloudy 65 18.4 54 12.1 67 67 NNW 9 15 30.22 1023 10 16 0.00 0.00
1:55 pm 13:55 Cloudy 65 18.4 53 11.9 66 66 NNW 7 11 30.23 1024 10 16 0.00 0.00
2:15 pm 14:15 Cloudy 66 18.7 53 11.8 64 64 NW 9 15 30.23 1024 10 16 0.00 0.00
2:35 pm 14:35 Cloudy 67 19.5 52 11 58 58 WNW 13 20 30.23 1024 10 16 0.00 0.00
2:55 pm 14:55 Cloudy 66 19.1 52 11.1 60 60 N 12 19 30.23 1024 10 16 0.00 0.00
3:15 pm 15:15 Cloudy 68 19.9 52 11.3 58 58 NW 9 15 30.22 1024 10 16 0.00 0.00
3:35 pm 15:35 Cloudy 68 19.9 52 11.3 58 58 WNW 12 19 30.22 1024 10 16 0.00 0.00
3:55 pm 15:55 Cloudy 68 20.1 52 11.1 56 56 NNW 8 13 30.22 1024 10 16 0.00 0.00
4:15 pm 16:15 Cloudy 67 19.5 51 10.5 56 56 NW 7 11 30.24 1024 10 16 0.00 0.00
4:35 pm 16:35 Mostly Cloudy 68 19.8 50 10.1 54 54 NW 8 13 30.23 1024 10 16 0.00 0.00
4:55 pm 16:55 Cloudy 67 19.7 51 10.3 55 55 NW 7 11 30.24 1024 10 16 0.00 0.00
5:15 pm 17:15 Mostly Cloudy 67 19.6 51 10.5 56 56 NNW 8 13 30.24 1024 10 16 0.00 0.00
5:35 pm 17:35 Cloudy 67 19.2 49 9.6 54 54 WNW 9 15 30.24 1024 10 16 0.00 0.00
5:55 pm 17:55 Cloudy 66 19.1 49 9.4 54 54 WNW 7 11 30.24 1024 10 16 0.00 0.00
6:15 pm 18:15 Cloudy 66 19.1 50 9.8 55 55 NW 7 11 30.24 1024 10 16 0.00 0.00
6:35 pm 18:35 Cloudy 67 19.2 49 9.2 53 53 NW 9 15 30.25 1024 10 16 0.00 0.00
6:55 pm 18:55 Partly Cloudy 65 18.5 47 8.6 53 53 NW 5 7 30.25 1024 10 16 0.00 0.00
7:15 pm 19:15 Sunny 65 18.6 48 8.9 53 53 NW 8 13 30.24 1024 10 16 0.00 0.00
7:35 pm 19:35 Sunny 64 17.8 45 7.4 51 51 NW 7 11 30.24 1024 10 16 0.00 0.00
7:55 pm 19:55 Sunny 64 17.5 45 7.4 52 52 NW 8 13 30.25 1024 10 16 0.00 0.00
8:15 pm 20:15 Sunny 62 16.9 45 7.3 53 53 N 7 11 30.24 1024 10 16 0.00 0.00
8:35 pm 20:35 Sunny 61 16.3 46 7.8 57 57 NNW 5 7 30.25 1024 10 16 0.00 0.00
8:55 pm 20:55 Clear 60 15.5 47 8.4 63 63 NNW 6 9 30.26 1025 10 16 0.00 0.00
9:15 pm 21:15 Clear 60 15.4 47 8.3 63 63 NW 3 6 30.28 1025 10 16 0.00 0.00
9:35 pm 21:35 Clear 59 14.8 49 9.4 70 70 Calm 30.29 1026 10 16 0.00 0.00
9:55 pm 21:55 Clear 57 14.1 50 10.2 78 78 NNW 3 6 30.30 1026 10 16 0.00 0.00
10:15 pm 22:15 Clear 58 14.3 48 8.7 69 69 NNW 8 13 30.31 1026 10 16 0.00 0.00
10:35 pm 22:35 Clear 58 14.3 46 7.9 66 66 NNW 7 11 30.30 1026 10 16 0.00 0.00
10:55 pm 22:55 Clear 58 14.7 43 6.1 57 57 NNW 9 15 30.31 1026 10 16 0.00 0.00
11:15 pm 23:15 Clear 58 14.5 41 5.2 54 54 NNW 12 19 30.31 1026 10 16 0.00 0.00
11:35 pm 23:35 Clear 58 14.4 39 3.7 49 49 N 13 20 30.32 1027 10 16 0.00 0.00
11:55 pm 23:55 Clear 57 14.1 35 1.4 42 42 N 12 19 30.32 1027 10 16 0.00 0.00

Powered by AerisWeather